Hourly Data Report for July 11, 2021

WINDSOR A
ONTARIO
Current Station Operator: NAVCAN

42°16'34.000" N
82°57'19.000" W
189.60 m
6139530
71538
YQG

Download Data

Hourly Data (July 2021)
Hourly Data Report for July 11, 2021
TIME
LST
Temp Definition
°C
Dew Point Definition
°C
Rel Hum Definition
%
Precip. Amount Definition
mm

Wind Dir Definition
10's deg

Wind Spd Definition
km/h
Visibility Definition
km
Stn Press Definition
kPa
Hmdx Definition


Wind Chill Definition


Weather Definition


00:00 17.9 15.6 86 0.0 6 9 16.1 99.41     LegendNANA
01:00 17.6 15.8 89 0.0 6 11 16.1 99.34     LegendNANA
02:00 18.6 16.4 87 0.0 8 8 16.1 99.33     LegendNANA
03:00 18.8 17.0 89 0.0 7 13 16.1 99.30     Rain
04:00 18.6 17.0 90 0.0 8 11 16.1 99.27     Rain
05:00 18.3 17.2 93 1.2 7 15 16.1 99.24     Rain
06:00 18.2 17.2 94 1.5 8 17 14.5 99.24     Rain
07:00 18.2 17.1 93 2.2 8 18 16.1 99.26     Rain
08:00 18.4 17.6 95 1.2 9 13 16.1 99.28     Rain
09:00 18.7 18.1 96 1.5 8 15 14.5 99.26     Rain
10:00 18.8 17.6 93 1.5 8 22 16.1 99.25     Rain
11:00 19.2 18.2 94 0.2 8 22 16.1 99.23     Rain
12:00 18.6 17.6 94 0.0 10 18 14.5 99.25     Rain
13:00 18.9 17.7 93 0.2 9 13 16.1 99.27     Rain
14:00 18.4 17.8 96 2.8 6 26 16.1 99.25     Rain
15:00 18.6 17.6 94 0.0 5 28 16.1 99.21     Rain
16:00 19.1 18.1 94 0.0 6 24 16.1 99.22     LegendNANA
17:00 19.3 18.3 94 0.0 4 21 16.1 99.23     LegendNANA
18:00 19.6 18.8 95 0.0 4 21 16.1 99.22     LegendNANA
19:00 19.2 18.9 98 1.0 4 18 6.4 99.27     Rain, Fog
20:00 19.1 18.7 97 0.5 5 18 9.7 99.27     Rain, Fog
21:00 19.5 18.5 94 0.2 5 22 16.1 99.31     LegendNANA
22:00 19.4 18.4 94 0.0 5 22 16.1 99.34     LegendNANA
23:00 19.5 18.2 92 0.0 5 21 16.1 99.39     LegendNANA

Notes on Data Quality.

Legend

  • E = Estimated
  • M = Missing
  • NA = Not Available*
  • [empty] = Indicates an unobserved value
Date modified: